Weather History for Sturgeon Bay, WI

Change the Weather History Date:

Thursday, February 20, 2014

  Actual Average Record
Temperature  
Mean Temperature 34 °F -  
Max Temperature 37 °F 32 °F 52 °F (1930)
Min Temperature 30 °F 14 °F -21 °F (1929)
Degree Days  
Heating Degree Days 32    
Moisture  
Dew Point 29 °F    
Average Humidity 83    
Maximum Humidity 100    
Minimum Humidity 64    
Precipitation  
Precipitation 0.27 in - - ()
Sea Level Pressure  
Sea Level Pressure 29.58 in    
Wind  
Wind Speed 10 mph (SE)    
Max Wind Speed 25 mph    
Max Gust Speed 36 mph    
Visibility 8 miles    
Events Thunderstorm    
Averages and records for this station are not official NWS values.
T = Trace of Precipitation, MM = Missing Value Source: NWS Daily Summary

Daily Weather History Graph

Daily Weather History Graph

Search for Another Location

Airport:

Trip Planner

Search our weather history database for the weather conditions in past years. The results will help you decide how hot, cold, wet, or windy it might be!

Date:

Astronomy

Feb. 20, 2014 Rise Set
Actual Time 6:42 AM CST 5:25 PM CST
Civil Twilight 6:12 AM CST 5:54 PM CST
Nautical Twilight 5:38 AM CST 6:28 PM CST
Astronomical Twilight 5:04 AM CST 7:02 PM CST
Moon 11:35 PM CST (2/20) 9:09 AM CST (2/20)
Length of Visible Light 11h 42m
Length of Day
10h 42m
Waning Gibbous, 70% of the Moon is Illuminated
Feb 20
Waning Gibbous
Feb 22
Last Quarter
Mar 1
New
Mar 8
First Quarter
Mar 16
Full

Hourly Weather History & Observations

Time (CST) Temp. Windchill Dew Point Humidity Pressure Visibility Wind Dir Wind Speed Gust Speed Precip Events Conditions
12:15 AM 32.0 °F 28.7 °F 21.2 °F 64% 29.90 in 10.0 mi WSW 3.5 mph - N/A   Clear
12:35 AM 30.2 °F 26.7 °F 21.2 °F 69% 29.90 in 10.0 mi SSW 3.5 mph - N/A   Clear
12:55 AM 32.0 °F - 21.2 °F 64% 29.89 in 10.0 mi Calm Calm - N/A   Partly Cloudy
1:15 AM 30.2 °F 25.4 °F 21.2 °F 69% 29.89 in 10.0 mi SSE 4.6 mph - N/A   Scattered Clouds
1:35 AM 30.2 °F 26.7 °F 21.2 °F 69% 29.89 in 10.0 mi SE 3.5 mph - N/A   Partly Cloudy
1:55 AM 30.2 °F 25.4 °F 21.2 °F 69% 29.89 in 10.0 mi SE 4.6 mph - N/A   Clear
2:15 AM 30.2 °F 23.4 °F 19.4 °F 64% 29.89 in 10.0 mi SE 6.9 mph - N/A   Scattered Clouds
2:35 AM 30.2 °F 24.3 °F 21.2 °F 69% 29.88 in 10.0 mi SE 5.8 mph - N/A   Scattered Clouds
2:55 AM 30.2 °F 24.3 °F 23.0 °F 75% 29.87 in 10.0 mi SSE 5.8 mph - N/A   Clear
3:15 AM 30.2 °F 24.3 °F 24.8 °F 80% 29.87 in 10.0 mi SE 5.8 mph - N/A   Clear
3:35 AM 30.2 °F 24.3 °F 24.8 °F 80% 29.86 in 10.0 mi SE 5.8 mph - N/A   Clear
3:55 AM 30.2 °F 22.6 °F 26.6 °F 86% 29.85 in 10.0 mi SE 8.1 mph - N/A   Clear
4:15 AM 30.2 °F 21.9 °F 26.6 °F 86% 29.85 in 9.0 mi SSE 9.2 mph - N/A   Clear
4:35 AM 32.0 °F 24.8 °F 26.6 °F 80% 29.85 in 10.0 mi SE 8.1 mph - N/A   Clear
4:55 AM 30.2 °F 23.4 °F 26.6 °F 86% 29.84 in 9.0 mi ESE 6.9 mph - N/A   Clear
5:15 AM 32.0 °F 24.8 °F 28.4 °F 87% 29.83 in 7.0 mi SE 8.1 mph - N/A   Clear
5:35 AM 32.0 °F 24.8 °F 28.4 °F 87% 29.82 in 5.0 mi ESE 8.1 mph - N/A   Clear
5:55 AM 32.0 °F 24.8 °F 28.4 °F 87% 29.82 in 4.0 mi ESE 8.1 mph - N/A   Scattered Clouds
6:15 AM 32.0 °F 24.2 °F 28.4 °F 87% 29.82 in 3.0 mi ESE 9.2 mph - N/A   Mostly Cloudy
6:35 AM 32.0 °F 24.8 °F 28.4 °F 87% 29.81 in 3.0 mi SE 8.1 mph - N/A   Scattered Clouds
6:55 AM 32.0 °F 24.2 °F 28.4 °F 87% 29.81 in 4.0 mi SE 9.2 mph - N/A   Clear
7:15 AM 32.0 °F 24.2 °F 28.4 °F 87% 29.81 in 5.0 mi SE 9.2 mph - N/A   Clear
7:35 AM 32.0 °F 24.2 °F 28.4 °F 87% 29.81 in 7.0 mi SE 9.2 mph - N/A   Partly Cloudy
7:55 AM 32.0 °F 23.6 °F 28.4 °F 87% 29.80 in 8.0 mi ESE 10.4 mph - N/A   Partly Cloudy
8:15 AM 32.0 °F 24.2 °F 28.4 °F 87% 29.80 in 10.0 mi SE 9.2 mph - N/A   Mostly Cloudy
8:35 AM 33.8 °F 25.8 °F 28.4 °F 81% 29.81 in 10.0 mi SE 10.4 mph - N/A   Overcast
8:55 AM 33.8 °F 25.3 °F 28.4 °F 81% 29.80 in 10.0 mi SE 11.5 mph - N/A   Overcast
9:15 AM 33.8 °F 25.8 °F 28.4 °F 81% 29.80 in 10.0 mi SSE 10.4 mph - N/A   Overcast
9:35 AM 35.6 °F 27.1 °F 28.4 °F 75% 29.79 in 10.0 mi SSE 12.7 mph 17.3 mph N/A   Overcast
9:55 AM 35.6 °F 26.6 °F 30.2 °F 81% 29.77 in 10.0 mi SSE 13.8 mph - N/A   Overcast
10:15 AM 35.6 °F 26.6 °F 30.2 °F 81% 29.75 in 10.0 mi SE 13.8 mph 21.9 mph N/A   Overcast
10:35 AM 35.6 °F 26.6 °F 30.2 °F 81% 29.76 in 10.0 mi SE 13.8 mph 21.9 mph N/A   Overcast
10:55 AM 35.6 °F 27.5 °F 32.0 °F 87% 29.77 in 10.0 mi SE 11.5 mph - N/A   Overcast
11:15 AM 35.6 °F 27.5 °F 32.0 °F 87% 29.75 in 10.0 mi SE 11.5 mph 18.4 mph N/A   Overcast
11:35 AM 35.6 °F 28.0 °F 30.2 °F 81% 29.72 in 10.0 mi ESE 10.4 mph - N/A   Overcast
11:55 AM 35.6 °F 27.1 °F 30.2 °F 81% 29.71 in 10.0 mi ESE 12.7 mph 19.6 mph N/A   Overcast
12:15 PM 35.6 °F 26.6 °F 30.2 °F 81% 29.70 in 10.0 mi ESE 13.8 mph 21.9 mph N/A   Overcast
12:35 PM 35.6 °F 27.1 °F 30.2 °F 81% 29.68 in 10.0 mi ESE 12.7 mph 19.6 mph N/A   Overcast
12:55 PM 37.4 °F 28.9 °F 30.2 °F 75% 29.66 in 10.0 mi ESE 13.8 mph 18.4 mph N/A   Overcast
1:15 PM 37.4 °F 28.9 °F 30.2 °F 75% 29.64 in 10.0 mi ESE 13.8 mph 20.7 mph N/A   Overcast
1:35 PM 37.4 °F 29.3 °F 30.2 °F 75% 29.64 in 10.0 mi East 12.7 mph - N/A   Overcast
1:55 PM 37.4 °F 29.8 °F 30.2 °F 75% 29.63 in 10.0 mi ESE 11.5 mph 24.2 mph N/A   Overcast
2:15 PM 35.6 °F 27.5 °F 30.2 °F 81% 29.61 in 10.0 mi East 11.5 mph - N/A   Overcast
2:35 PM 35.6 °F 27.5 °F 30.2 °F 81% 29.58 in 10.0 mi East 11.5 mph 19.6 mph N/A   Overcast
2:55 PM 35.6 °F 27.1 °F 30.2 °F 81% 29.57 in 10.0 mi East 12.7 mph 18.4 mph N/A   Overcast
3:15 PM 35.6 °F 28.6 °F 30.2 °F 81% 29.54 in 10.0 mi East 9.2 mph 17.3 mph N/A   Overcast
3:35 PM 35.6 °F 26.6 °F 30.2 °F 81% 29.51 in 10.0 mi East 13.8 mph 20.7 mph N/A   Overcast
3:55 PM 35.6 °F 25.5 °F 28.4 °F 75% 29.49 in 10.0 mi ESE 17.3 mph 27.6 mph N/A   Overcast
4:15 PM 35.6 °F 26.2 °F 30.2 °F 81% 29.47 in 10.0 mi East 15.0 mph 24.2 mph N/A   Overcast
4:35 PM 35.6 °F 24.2 °F 30.2 °F 81% 29.45 in 10.0 mi East 21.9 mph 31.1 mph N/A   Overcast
4:55 PM 35.6 °F 25.2 °F 30.2 °F 81% 29.42 in 10.0 mi East 18.4 mph 28.8 mph N/A   Overcast
5:15 PM 35.6 °F 25.5 °F 30.2 °F 81% 29.40 in 10.0 mi East 17.3 mph 26.5 mph N/A   Overcast
5:35 PM 35.6 °F 26.2 °F 30.2 °F 81% 29.38 in 10.0 mi ESE 15.0 mph 24.2 mph N/A   Overcast
5:55 PM 35.6 °F 25.9 °F 30.2 °F 81% 29.35 in 10.0 mi East 16.1 mph 28.8 mph N/A   Overcast
6:15 PM 33.8 °F 23.9 °F 30.2 °F 87% 29.31 in 10.0 mi East 15.0 mph 27.6 mph N/A   Overcast
6:35 PM 35.6 °F 26.2 °F 30.2 °F 81% 29.32 in 10.0 mi ESE 15.0 mph 26.5 mph 0.01 in   Overcast
6:55 PM 35.6 °F 25.2 °F 30.2 °F 81% 29.28 in 5.0 mi ESE 18.4 mph 28.8 mph 0.08 in Thunderstorm Overcast
7:15 PM 33.8 °F 23.5 °F 30.2 °F 87% 29.27 in 4.0 mi ESE 16.1 mph 29.9 mph 0.01 in   Overcast
7:35 PM 33.8 °F 23.2 °F 32.0 °F 93% 29.24 in 4.0 mi ESE 17.3 mph 24.2 mph 0.07 in   Overcast
7:55 PM 33.8 °F 23.2 °F 32.0 °F 93% 29.21 in 10.0 mi East 17.3 mph 25.3 mph 0.08 in   Overcast
8:15 PM 33.8 °F 22.8 °F 32.0 °F 93% 29.18 in 8.0 mi ESE 18.4 mph 24.2 mph 0.01 in   Overcast
8:35 PM 33.8 °F 22.2 °F 32.0 °F 93% 29.16 in 3.0 mi ESE 20.7 mph 28.8 mph 0.02 in   Overcast
8:55 PM 35.6 °F 26.6 °F 32.0 °F 87% 29.14 in 2.5 mi ESE 13.8 mph 28.8 mph 0.07 in   Overcast
9:15 PM 35.6 °F 25.2 °F 32.0 °F 87% 29.12 in 8.0 mi ESE 18.4 mph 27.6 mph 0.02 in   Overcast
9:35 PM 35.6 °F 25.2 °F 33.8 °F 93% 29.09 in 9.0 mi ESE 18.4 mph 25.3 mph 0.02 in   Overcast
9:55 PM 35.6 °F 24.8 °F 33.8 °F 93% 29.06 in 2.0 mi SE 19.6 mph 28.8 mph 0.03 in   Overcast
10:15 PM 37.4 °F 26.1 °F 35.6 °F 93% 29.05 in 3.0 mi SE 24.2 mph 34.5 mph 0.01 in   Overcast
10:35 PM 37.4 °F 26.6 °F 37.4 °F 100% 29.03 in 2.0 mi SSE 21.9 mph 31.1 mph 0.01 in   Overcast
10:55 PM 37.4 °F 26.9 °F 37.4 °F 100% 29.01 in 4.0 mi SSE 20.7 mph 32.2 mph 0.01 in   Overcast
11:15 PM 37.4 °F 26.1 °F 35.6 °F 93% 28.99 in 4.0 mi South 24.2 mph 32.2 mph N/A   Overcast
11:35 PM 35.6 °F 23.4 °F 33.8 °F 93% 28.99 in 5.0 mi South 25.3 mph 35.7 mph N/A   Overcast
11:55 PM 35.6 °F 24.2 °F 33.8 °F 93% 28.99 in 10.0 mi South 21.9 mph 32.2 mph N/A   Overcast